Location: Taranto
(40.4760°N, 17.2300°E)
Time: 08:47:17
(UTC+02:00)

ISS - Visible Passes

Search period start: 08 May 2021 00:00
Search period end: 18 May 2021 00:00
Orbit: 418 x 421 km, 51.6° (Epoch: 08 May)

Date Brightness Start Highest point End Pass type
(mag) Time Alt. Az. Time Alt. Az. Time Alt. Az.
08 May -1.0 02:49:24 15° NNW 02:49:56 15° NNW 02:52:01 10° NNE visible
08 May -0.8 04:26:05 10° NNW 04:27:50 13° N 04:29:36 10° NE visible
09 May -0.7 02:03:26 16° N 02:03:26 16° N 02:04:44 10° NNE visible
09 May -0.7 03:38:35 10° NNW 03:40:08 13° N 03:41:42 10° NNE visible
10 May -0.2 01:17:26 10° NNE 01:17:26 10° NNE 01:17:27 10° NNE visible
10 May -0.6 02:50:53 10° NNW 02:52:26 13° N 02:53:59 10° NNE visible
10 May -0.9 04:27:49 10° NNW 04:30:16 18° NNE 04:32:44 10° ENE visible
11 May -0.6 02:04:21 13° NNW 02:04:43 13° N 02:06:29 10° NNE visible
11 May -0.7 03:40:32 10° NNW 03:42:37 15° NNE 03:44:42 10° NE visible
12 May -0.4 01:18:16 13° NNE 01:18:16 13° NNE 01:19:06 10° NNE visible
12 May -0.6 02:53:10 10° NNW 02:54:56 13° N 02:56:42 10° NE visible
12 May -1.8 04:29:27 10° NW 04:32:32 32° NNE 04:35:38 10° E visible
13 May -0.4 02:05:40 10° NNW 02:07:13 13° N 02:08:46 10° NNE visible
13 May -1.2 03:42:10 10° NNW 03:44:58 23° NNE 03:47:46 10° E visible
14 May -0.4 01:18:38 12° NNW 01:19:30 12° N 01:21:03 10° NNE visible
14 May -0.8 02:54:53 10° NNW 02:57:21 18° NNE 02:59:48 10° ENE visible
14 May -3.7 04:31:12 10° NW 04:34:35 82° NE 04:37:57 10° SE visible
14 May -3.1 21:14:19 10° SSW 21:17:22 33° SE 21:20:26 10° ENE visible
14 May -1.9 22:51:07 10° W 22:54:10 31° NNW 22:55:40 22° NNE visible
15 May -0.4 00:30:03 10° NW 00:31:47 13° N 00:33:32 10° NNE visible
15 May -0.6 02:07:35 10° NNW 02:09:41 15° NNE 02:11:46 10° NE visible
15 May -2.8 03:43:49 10° NW 03:47:07 49° NNE 03:50:24 10° ESE visible
15 May -2.3 20:27:34 10° S 20:30:04 20° SE 20:32:34 10° E visible
15 May -2.7 22:03:23 10° WSW 22:06:38 47° NNW 22:09:56 10° NE visible
15 May -0.6 23:42:02 10° NW 23:44:06 15° NNW 23:46:09 10° NNE visible
16 May -0.4 01:20:14 10° NNW 01:21:59 13° N 01:23:46 10° NE visible
16 May -1.9 02:56:30 10° NW 02:59:35 32° NNE 03:02:41 10° E visible
16 May -3.0 04:33:20 10° WNW 04:36:23 32° SW 04:39:26 10° SSE visible
16 May -3.7 21:15:49 10° WSW 21:19:11 79° NW 21:22:34 10° NE visible
16 May -0.8 22:54:01 10° WNW 22:56:26 18° NNW 22:58:51 10° NNE visible
17 May -0.3 00:32:43 10° NNW 00:34:17 13° N 00:35:50 10° NNE visible
17 May -1.3 02:09:13 10° NNW 02:12:01 24° NNE 02:14:49 10° E visible
17 May -3.8 03:45:43 10° WNW 03:49:02 56° SW 03:52:21 10° SE visible
17 May -3.7 20:28:27 10° SW 20:31:46 60° SE 20:35:05 10° ENE visible
17 May -1.2 22:06:03 10° WNW 22:08:47 23° NNW 22:11:34 10° NNE visible
17 May -0.4 23:45:01 10° NNW 23:46:33 12° N 23:48:05 10° NNE visible
